User: anonymous   Login
Location: Unspecified
(0.0000°N, 0.0000°E)
Time: 00:37:28
(UTC+00:00)
Language:

GRACE-1 - Orbit

View from above orbital plane
View from above orbital plane
View from above satellite
View from above satellite

Ground track
Ground track

The orbit data is extracted from the following two-line orbital elements,

1 27391U 02012A   17346.89081850  .00087406  16896-5  26443-3 0  9999
2 27391  88.9822 294.3120 0004761  52.9979   7.0443 15.92030110885754
Epoch (UTC): 12 December 2017 21:22:46
Eccentricity: 0.0004761
inclination: 88.9822°
perigee height: 293 km
apogee height: 300 km
right ascension of ascending node: 294.3120°
argument of perigee: 52.9979°
revolutions per day: 15.92030110
mean anomaly at epoch: 7.0443°
orbit number at epoch: 88575

The dashed part of the orbit path shows where the satellite is in the earth's shadow,  

DLR